Main page
Satellite images Climate Cyclones Lightning AirportsFAQ Languages Contact Newsletter About
Weather : Europe Africa North America South America Asia Australia-Oceania Others

udon-thani-th, Khon Kaen, Khon Kaen Airport

48381

latitude: , longitude: Thailand, elevation: 16-26N m


METAR: VTUK 212000Z 06004KT 9000 NSC 24/21 Q1013 NOSIG